Weather in Zhizhitsa

Russia / Pskov Oblast     56°17′01″N   31°20′59″E
temp.,
°C
wind,
m/s
gust,
m/s
humid.,
%
clouds,
%
prec.,
mm/h
press.,
hPa
HPBL,
m
22 april, thu
thu2200:00+5ssw389187 0.0 1007347
03:00+5s31095100 0.1 1007297
06:00+4ssw399678 0.0 1008204
09:00+9sw377067 0.0 1008462
12:00+13sw464443 0.0 10091453
15:00+15ssw463789 0.0 10082456
18:00+13s485792 0.3 10081303
21:00+8s288556 1.7 1008175
23 april, fri
fri2300:00+6w3886100 0.3 1009633
03:00+5ssw2786100 0.3 1009485
06:00+4sw2881100 0.0 1009566
09:00+5sw4863100 0.0 1010962
12:00+7sw5958100 0.4 10101704
15:00+8sw585057 0.6 10101747
18:00+7sw465694 0.1 10101389
21:00+4ssw3778100 0.4 1011352
24 april, sat
sat2400:00+2w268874 0.1 1010274
03:000w26966 0.1 1010233
06:00−1wnw379741 0.0 1010329
09:00+2wnw456884 0.0 1010994
12:00+3w4658100 0.1 10111531
15:00+5w4650100 0.3 10101581
18:00+5w5861100 0.8 10101444
21:00+1wsw27796 0.9 1011191
25 april, sun
sun2500:00−1sw29895 0.0 1011216
03:00−1wsw311885 0.0 1010470
06:00−1wsw4119399 0.2 1010588
09:00+1wsw5776100 0.4 1010969
12:00+3w5769100 0.3 10101245
15:00+5wsw5752100 0.6 10101681
18:00+5wsw4862100 0.6 10101308
21:000sw288632 0.8 1011172
26 april, mon
mon2600:00−1sw3109153 0.0 1011296
03:00−2sw2896100 0.0 1011201
06:00−2sw279581 0.0 1011264
09:00+2sw3577100 0.1 1011922
12:00+4sw465693 0.1 10111518
15:00+6wsw4553100 0.6 10101745
18:00+4w467497 0.4 1010981
21:000sw2292100 0.4 101039